Weather History for Grove, OK

Change the Weather History Date:

Friday, November 23, 2012

  Actual Average (KSLG) Record (KSLG)
Temperature  
Mean Temperature 46 °F -  
Max Temperature 59 °F 53 °F 73 °F (2005)
Min Temperature 32 °F 35 °F 17 °F (2007)
Degree Days  
Heating Degree Days 19    
Moisture  
Dew Point 28 °F    
Average Humidity 56    
Maximum Humidity 81    
Minimum Humidity 39    
Precipitation  
Precipitation 0.00 in - - ()
Sea Level Pressure  
Sea Level Pressure 30.42 in    
Wind  
Wind Speed 9 mph (NNW)    
Max Wind Speed 22 mph    
Max Gust Speed 29 mph    
Visibility 10 miles    
Events      
Averages and records for this station are not official NWS values.
T = Trace of Precipitation, MM = Missing Value Source: NWS Daily Summary

Daily Weather History Graph

Daily Weather History Graph

Search for Another Location

Airport:

Trip Planner

Search our weather history database for the weather conditions in past years. The results will help you decide how hot, cold, wet, or windy it might be!

Date:

Astronomy

Nov. 23, 2012 Rise Set
Actual Time 7:05 AM CST 5:05 PM CST
Civil Twilight 6:37 AM CST 5:33 PM CST
Nautical Twilight 6:05 AM CST 6:05 PM CST
Astronomical Twilight 5:34 AM CST 6:36 PM CST
Moon 2:14 PM CST (11/23) 2:31 AM CST (11/23)
Length of Visible Light 10h 56m
Length of Day
10h 00m
Waxing Gibbous, 80% of the Moon is Illuminated
Nov 23
Waxing Gibbous
Nov 28
Full
Dec 6
Last Quarter
Dec 13
New
Dec 19
First Quarter

Hourly Weather History & Observations

Time (CST) Temp. Windchill Dew Point Humidity Pressure Visibility Wind Dir Wind Speed Gust Speed Precip Events Conditions
12:15 AM 59.0 °F - 41.0 °F 51% 30.24 in 10.0 mi NNE 11.5 mph 21.9 mph N/A   Overcast
12:35 AM 55.4 °F - 41.0 °F 58% 30.25 in 10.0 mi North 10.4 mph 20.7 mph N/A   Mostly Cloudy
12:55 AM 55.4 °F - 39.2 °F 54% 30.26 in 10.0 mi North 6.9 mph - N/A   Mostly Cloudy
1:15 AM 53.6 °F - 39.2 °F 58% 30.28 in 10.0 mi North 4.6 mph - N/A   Mostly Cloudy
1:35 AM 53.6 °F - 35.6 °F 51% 30.28 in 10.0 mi North 8.1 mph - N/A   Mostly Cloudy
1:55 AM 53.6 °F - 33.8 °F 47% 30.29 in 10.0 mi North 12.7 mph 19.6 mph N/A   Mostly Cloudy
2:15 AM 53.6 °F - 35.6 °F 51% 30.31 in 10.0 mi North 9.2 mph - N/A   Overcast
2:35 AM 51.8 °F - 35.6 °F 54% 30.32 in 10.0 mi North 9.2 mph - N/A   Overcast
2:55 AM 51.8 °F - 35.6 °F 54% 30.32 in 10.0 mi North 4.6 mph - N/A   Scattered Clouds
3:15 AM 50.0 °F - 35.6 °F 58% 30.33 in 10.0 mi North 4.6 mph - N/A   Clear
3:35 AM 48.2 °F - 33.8 °F 58% 30.33 in 10.0 mi North 4.6 mph - N/A   Clear
3:55 AM 48.2 °F - 33.8 °F 58% 30.34 in 10.0 mi Calm Calm - N/A   Clear
4:15 AM 46.4 °F - 33.8 °F 62% 30.34 in 10.0 mi Calm Calm - N/A   Clear
4:35 AM 44.6 °F - 33.8 °F 66% 30.35 in 10.0 mi Calm Calm - N/A   Clear
4:55 AM 44.6 °F - 33.8 °F 66% 30.36 in 10.0 mi Calm Calm - N/A   Clear
5:15 AM 42.8 °F - 35.6 °F 76% 30.36 in 10.0 mi Calm Calm - N/A   Clear
5:35 AM 44.6 °F 42.2 °F 37.4 °F 76% 30.37 in 10.0 mi NW 4.6 mph - N/A   Clear
5:55 AM 42.8 °F 40.1 °F 37.4 °F 81% 30.38 in 10.0 mi NNW 4.6 mph - N/A   Clear
6:15 AM 44.6 °F 40.7 °F 37.4 °F 76% 30.38 in 10.0 mi NNW 6.9 mph - N/A   Clear
6:35 AM 44.6 °F 40.2 °F 37.4 °F 76% 30.40 in 10.0 mi NNW 8.1 mph - N/A   Clear
6:55 AM 42.8 °F 38.0 °F 37.4 °F 81% 30.41 in 10.0 mi NW 8.1 mph - N/A   Clear
7:15 AM 42.8 °F 38.6 °F 35.6 °F 76% 30.41 in 10.0 mi NNW 6.9 mph - N/A   Clear
7:35 AM 44.6 °F 39.2 °F 35.6 °F 71% 30.43 in 10.0 mi NW 10.4 mph - N/A   Clear
7:55 AM 44.6 °F 38.4 °F 35.6 °F 71% 30.44 in 10.0 mi NW 12.7 mph 16.1 mph N/A   Clear
8:15 AM 44.6 °F 37.4 °F 32.0 °F 61% 30.44 in 10.0 mi NW 16.1 mph 26.5 mph N/A   Clear
8:35 AM 44.6 °F 37.4 °F 32.0 °F 61% 30.45 in 10.0 mi NW 16.1 mph 23.0 mph N/A   Clear
8:55 AM 44.6 °F 37.2 °F 30.2 °F 57% 30.46 in 10.0 mi NW 17.3 mph 25.3 mph N/A   Clear
9:15 AM 44.6 °F 36.1 °F 28.4 °F 53% 30.47 in 10.0 mi NNW 21.9 mph 28.8 mph N/A   Clear
9:35 AM 44.6 °F 37.4 °F 26.6 °F 49% 30.48 in 10.0 mi NW 16.1 mph 21.9 mph N/A   Clear
9:55 AM 44.6 °F 37.4 °F 24.8 °F 46% 30.48 in 10.0 mi NW 16.1 mph 24.2 mph N/A   Clear
10:15 AM 44.6 °F 37.2 °F 23.0 °F 43% 30.50 in 10.0 mi NNW 17.3 mph 24.2 mph N/A   Clear
10:35 AM 44.6 °F 36.4 °F 23.0 °F 43% 30.50 in 10.0 mi NNW 20.7 mph 27.6 mph N/A   Clear
10:55 AM 44.6 °F 37.4 °F 21.2 °F 39% 30.50 in 10.0 mi NW 16.1 mph 24.2 mph N/A   Clear
11:15 AM 44.6 °F 38.1 °F 21.2 °F 39% 30.50 in 10.0 mi NNW 13.8 mph 23.0 mph N/A   Clear
11:35 AM 44.6 °F 38.1 °F 21.2 °F 39% 30.50 in 10.0 mi NNW 13.8 mph 25.3 mph N/A   Clear
11:55 AM 44.6 °F 36.9 °F 21.2 °F 39% 30.49 in 10.0 mi NNW 18.4 mph 24.2 mph N/A   Clear
12:15 PM 44.6 °F 36.1 °F 21.2 °F 39% 30.49 in 10.0 mi NNW 21.9 mph 27.6 mph N/A   Clear
12:35 PM 44.6 °F 38.4 °F 21.2 °F 39% 30.49 in 10.0 mi NNW 12.7 mph 25.3 mph N/A   Clear
12:55 PM 44.6 °F 38.8 °F 23.0 °F 43% 30.48 in 10.0 mi NNW 11.5 mph 16.1 mph N/A   Clear
1:15 PM 46.4 °F 40.7 °F 23.0 °F 40% 30.47 in 10.0 mi NNW 12.7 mph - N/A   Clear
1:35 PM 44.6 °F 37.8 °F 21.2 °F 39% 30.47 in 10.0 mi NW 15.0 mph - N/A   Clear
1:55 PM 44.6 °F 38.1 °F 21.2 °F 39% 30.46 in 10.0 mi NNW 13.8 mph 19.6 mph N/A   Clear
2:15 PM 44.6 °F 39.2 °F 23.0 °F 43% 30.46 in 10.0 mi NNW 10.4 mph 16.1 mph N/A   Clear
2:35 PM 44.6 °F 38.8 °F 23.0 °F 43% 30.46 in 10.0 mi West 11.5 mph - N/A   Clear
2:55 PM 44.6 °F 38.8 °F 23.0 °F 43% 30.46 in 10.0 mi WNW 11.5 mph 18.4 mph N/A   Clear
3:15 PM 44.6 °F 38.8 °F 21.2 °F 39% 30.46 in 10.0 mi NW 11.5 mph - N/A   Clear
3:35 PM 44.6 °F 38.8 °F 21.2 °F 39% 30.46 in 10.0 mi WNW 11.5 mph 17.3 mph N/A   Clear
3:55 PM 42.8 °F 36.2 °F 23.0 °F 46% 30.46 in 10.0 mi NW 12.7 mph - N/A   Clear
4:15 PM 42.8 °F 38.0 °F 23.0 °F 46% 30.46 in 10.0 mi NW 8.1 mph - N/A   Clear
4:35 PM 42.8 °F 36.6 °F 23.0 °F 46% 30.46 in 10.0 mi NW 11.5 mph - N/A   Clear
4:55 PM 41.0 °F 37.1 °F 23.0 °F 49% 30.46 in 10.0 mi NW 5.8 mph 9.2 mph N/A   Clear
5:15 PM 41.0 °F 36.4 °F 23.0 °F 49% 30.46 in 10.0 mi NW 6.9 mph - N/A   Clear
5:35 PM 41.0 °F 37.1 °F 23.0 °F 49% 30.46 in 10.0 mi NW 5.8 mph - N/A   Clear
5:55 PM 39.2 °F 34.2 °F 23.0 °F 52% 30.46 in 10.0 mi NW 6.9 mph - N/A   Clear
6:35 PM 37.4 °F 34.9 °F 24.8 °F 60% 30.46 in 10.0 mi NW 3.5 mph - N/A   Clear
6:55 PM 35.6 °F 32.8 °F 24.8 °F 65% 30.46 in 10.0 mi NW 3.5 mph - N/A   Clear
7:15 PM 35.6 °F 31.7 °F 24.8 °F 65% 30.46 in 10.0 mi NW 4.6 mph - N/A   Clear
7:35 PM 37.4 °F 34.9 °F 24.8 °F 60% 30.46 in 10.0 mi NW 3.5 mph - N/A   Clear
7:55 PM 37.4 °F 33.8 °F 24.8 °F 60% 30.46 in 10.0 mi NNW 4.6 mph - N/A   Clear
8:15 PM 35.6 °F 30.7 °F 24.8 °F 65% 30.46 in 10.0 mi NNW 5.8 mph - N/A   Clear
8:35 PM 35.6 °F 29.9 °F 24.8 °F 65% 30.46 in 10.0 mi NNW 6.9 mph - N/A   Clear
8:55 PM 37.4 °F 31.4 °F 24.8 °F 60% 30.47 in 10.0 mi NNW 8.1 mph - N/A   Clear
9:15 PM 35.6 °F 29.9 °F 23.0 °F 60% 30.47 in 10.0 mi NW 6.9 mph - N/A   Clear
9:35 PM 35.6 °F 30.7 °F 23.0 °F 60% 30.47 in 10.0 mi NNW 5.8 mph - N/A   Clear
9:55 PM 33.8 °F 29.6 °F 23.0 °F 65% 30.47 in 10.0 mi NNW 4.6 mph - N/A   Clear
10:15 PM 33.8 °F 30.8 °F 23.0 °F 65% 30.46 in 10.0 mi North 3.5 mph - N/A   Clear
10:35 PM 33.8 °F - 23.0 °F 65% 30.46 in 10.0 mi Calm Calm - N/A   Clear
10:55 PM 33.8 °F - 23.0 °F 65% 30.45 in 10.0 mi Calm Calm - N/A   Clear
11:15 PM 33.8 °F - 23.0 °F 65% 30.45 in 10.0 mi Calm Calm - N/A   Clear
11:35 PM 33.8 °F - 24.8 °F 70% 30.46 in 10.0 mi Calm Calm - N/A   Clear
11:55 PM 32.0 °F - 23.0 °F 69% 30.46 in 10.0 mi Calm Calm - N/A   Clear